Probability
100 100 100 100 100 100 100 100 100 100 100 100 100 97 100 100 100 100 100 100 100 100 100 100 100 100 100 100 100 100 100 100 100 100 100 97 97 100 100 100 100 97 74
100 100 100 100 100 100 97 100 100 100 100 100 97 90 97 97 100 100 100 100 100 100 100 100 100 100 100 100 100 100 100 100 100 100 100 100 100 100 100 100 100 97 61
100 100 100 100 100 97 97 97 100 94 97 94 97 100 94 94 90 97 97 97 100 100 100 100 100 100 100 100 100 100 100 100 100 100 100 100 100 100 100 100 100 100 39
100 100 100 100 100 100 100 97 97 97 90 94 94 97 97 97 100 97 90 90 94 94 100 100 100 100 100 100 100 100 100 100 100 100 100 100 100 100 100 100 100 100 39
61 68 90 97 90 90 94 94 90 97 97 94 94 97 97 97 97 100 100 87 90 97 97 97 100 100 100 100 100 100 100 100 100 100 100 100 100 100 100 97 100 97 42
16 23 23 32 48 52 68 81 90 97 97 97 94 94 100 100 100 100 100 97 97 94 97 97 97 100 100 100 97 97 97 100 100 100 100 100 100 100 100 94 74 68 23
6 23 3 16 39 29 45 52 55 55 65 77 74 81 81 77 90 100 100 97 97 90 94 94 97 90 84 81 77 87 87 94 100 100 100 100 100 100 100 94 58 23 19
10 0 6 0 3 23 32 32 55 39 16 48 68 42 26 29 74 77 100 100 97 94 77 71 84 100 84 74 39 68 87 87 94 100 100 97 97 100 100 97 48 10 0
6 3 10 3 10 6 3 13 39 35 23 26 35 55 16 3 13 35 77 94 97 94 77 55 52 71 87 90 90 26 84 77 77 87 100 97 90 81 65 45 35 13 0
0 0 0 0 3 3 3 3 0 19 35 19 29 68 61 39 16 6 32 71 90 94 84 52 35 42 61 77 77 19 16 32 39 42 71 74 74 35 6 6 39 39 6
0 0 0 0 0 3 3 3 13 16 16 19 26 29 52 87 77 23 3 26 52 61 87 77 55 42 58 68 81 13 3 0 3 10 26 29 29 29 10 19 45 90 77
3 0 0 3 6 6 3 6 16 19 32 29 29 26 39 52 42 42 19 32 35 48 68 65 55 61 68 61 19 0 0 0 0 0 0 0 0 3 3 6 19 45 74
0 0 0 3 6 6 10 13 16 13 32 42 42 35 35 48 65 52 45 32 42 71 87 77 45 55 42 48 10 0 0 0 0 0 0 0 0 0 0 0 3 3 6
0 0 3 0 0 3 0 13 13 13 26 35 32 55 61 58 74 74 68 68 71 74 90 65 39 35 23 16 3 0 0 0 0 0 0 0 0 0 0 0 0 0 0
3 0 3 0 0 0 3 16 13 26 29 29 35 48 55 65 81 84 90 90 90 90 90 45 13 6 6 6 0 3 0 0 0 0 0 0 0 0 0 0 0 0 0
35 19 3 0 0 0 0 13 10 13 29 39 52 61 71 55 61 81 90 94 97 94 81 35 0 0 0 0 0 0 0 0 0 0 0 0 0 0 0 0 0 0 0
52 32 10 6 0 0 0 3 6 3 3 6 23 19 45 52 71 77 87 97 97 94 61 0 0 0 0 0 0 0 0 0 0 0 0 0 0 0 0 0 0 0 0
52 32 10 6 0 0 0 0 0 3 3 3 10 13 19 26 42 52 68 77 81 61 23 0 0 0 0 0 0 0 0 0 0 0 0 0 0 0 0 0 0 0 0
55 35 16 6 0 0 0 0 0 3 3 0 0 3 6 19 35 32 32 39 32 16 13 0 0 0 0 0 0 0 0 0 0 0 0 0 0 0 0 0 0 0 0
45 32 13 3 0 0 0 0 0 0 0 0 0 0 0 3 3 10 0 10 10 6 0 0 0 0 0 0 0 0 0 0 0 0 0 0 0 0 0 0 0 0 0
13 29 10 3 0 0 0 0 0 0 0 0 0 0 0 0 0 0 0 0 0 0 0 0 0 0 0 0 0 0 0 0 0 0 0 0 0 0 0 0 0 0 0
6 10 6 6 0 0 0 0 0 0 0 0 0 0 0 0 0 0 0 0 0 0 0 0 0 0 0 0 0 0 0 0 0 0 0 0 0 0 0 0 0 0 0
3 6 0 3 3 0 0 0 0 0 0 0 0 0 0 0 0 0 0 0 0 0 0 0 0 0 0 0 0 0 0 0 0 0 0 0 0 0 0 0 0 0 0
3 3 10 0 3 0 0 0 0 0 0 0 0 0 0 0 0 0 0 0 0 0 0 0 0 0 0 0 0 0 0 0 0 0 0 0 0 0 0 0 0 0 0
0 0 0 0 0 0 0 0 0 0 0 0 0 0 0 0 0 0 0 0 0 0 0 0 0 0 0 0 0 0 0 0 0 0 0 0 0 0 0 0 0 0 0
0 0 0 0 0 0 0 0 0 0 0 0 0 0 0 0 0 0 0 0 0 0 0 0 0 0 0 0 0 0 0 0 0 0 0 0 0 0 0 0 0 0 0
Height
5878 5877 5877 5875 5874 5873 5871 5869 5867 5866 5865 5865 5865 5865 5865 5865 5866 5866 5867 5867 5868 5869 5870 5872 5872 5872 5873 5873 5874 5874 5875 5875 5876 5877 5877 5877 5878 5879 5880 5881 5881 5882 5883
5870 5869 5868 5868 5866 5864 5863 5861 5859 5857 5856 5856 5856 5856 5856 5856 5857 5858 5858 5859 5860 5861 5863 5864 5866 5866 5867 5868 5868 5869 5870 5870 5871 5872 5873 5874 5874 5875 5876 5877 5878 5879 5879
5863 5862 5861 5860 5858 5856 5855 5853 5852 5850 5849 5848 5848 5848 5848 5848 5848 5849 5850 5850 5852 5853 5855 5856 5858 5859 5860 5861 5862 5863 5863 5864 5865 5867 5868 5869 5870 5871 5871 5872 5873 5875 5876
5857 5856 5854 5853 5851 5849 5848 5846 5845 5843 5842 5841 5840 5839 5840 5840 5840 5841 5842 5843 5843 5845 5846 5848 5849 5850 5852 5853 5854 5855 5856 5857 5858 5859 5861 5863 5865 5866 5867 5868 5869 5870 5871
5850 5849 5847 5845 5843 5842 5840 5838 5837 5835 5834 5833 5832 5831 5832 5832 5832 5833 5833 5834 5835 5836 5837 5838 5840 5841 5843 5845 5845 5846 5847 5848 5849 5851 5853 5855 5857 5859 5861 5862 5864 5865 5866
5844 5842 5840 5838 5836 5834 5832 5830 5828 5826 5825 5824 5822 5822 5823 5823 5824 5824 5825 5825 5826 5827 5828 5829 5830 5832 5834 5835 5836 5838 5839 5840 5841 5842 5844 5846 5849 5851 5854 5856 5858 5859 5861
5838 5836 5833 5831 5829 5826 5824 5821 5819 5817 5816 5815 5814 5814 5814 5814 5815 5816 5816 5816 5817 5818 5819 5820 5821 5822 5824 5826 5827 5828 5829 5830 5832 5833 5835 5837 5839 5842 5845 5849 5851 5853 5855
5832 5830 5827 5824 5821 5818 5815 5812 5809 5808 5807 5806 5805 5805 5806 5807 5806 5807 5807 5807 5808 5809 5810 5811 5812 5813 5815 5816 5818 5819 5820 5821 5822 5824 5826 5828 5830 5833 5836 5839 5843 5845 5847
5827 5824 5821 5818 5815 5811 5807 5803 5800 5798 5798 5797 5796 5796 5797 5798 5798 5798 5799 5799 5799 5800 5801 5802 5803 5805 5806 5807 5808 5810 5811 5812 5813 5814 5816 5818 5820 5823 5826 5829 5834 5837 5840
5820 5817 5814 5811 5807 5803 5800 5796 5792 5789 5787 5787 5786 5786 5787 5788 5789 5790 5791 5791 5792 5791 5792 5793 5794 5796 5797 5798 5799 5801 5802 5803 5804 5805 5807 5808 5810 5812 5815 5819 5824 5828 5832
5813 5810 5807 5804 5801 5797 5792 5788 5784 5780 5777 5776 5775 5776 5777 5778 5779 5781 5782 5783 5783 5783 5783 5784 5785 5786 5787 5788 5790 5791 5793 5794 5795 5796 5797 5799 5800 5802 5805 5809 5814 5818 5822
5805 5803 5800 5797 5793 5790 5786 5781 5777 5772 5769 5766 5765 5765 5766 5768 5770 5771 5773 5774 5774 5775 5775 5776 5777 5777 5778 5779 5780 5782 5783 5784 5785 5787 5788 5789 5790 5792 5795 5799 5803 5808 5813
5798 5795 5792 5789 5786 5783 5779 5774 5769 5765 5761 5758 5756 5755 5756 5758 5760 5761 5763 5765 5765 5766 5766 5767 5768 5769 5769 5770 5771 5773 5774 5775 5777 5778 5779 5780 5782 5783 5785 5789 5794 5799 5804
5789 5787 5784 5782 5779 5775 5772 5768 5763 5758 5754 5750 5748 5746 5746 5747 5749 5751 5753 5755 5756 5757 5757 5759 5759 5760 5761 5762 5763 5764 5765 5767 5768 5770 5771 5772 5774 5775 5777 5780 5784 5789 5795
5779 5778 5776 5773 5771 5767 5764 5761 5757 5752 5747 5743 5740 5738 5737 5738 5739 5741 5743 5745 5747 5748 5749 5750 5751 5752 5752 5753 5754 5755 5757 5759 5761 5762 5764 5765 5766 5768 5769 5772 5776 5781 5786
5769 5768 5766 5764 5762 5759 5756 5753 5750 5746 5741 5737 5733 5731 5729 5729 5730 5731 5733 5735 5737 5739 5740 5741 5742 5743 5744 5745 5746 5747 5750 5751 5754 5756 5757 5758 5759 5761 5762 5765 5768 5772 5777
5759 5757 5756 5754 5752 5750 5748 5745 5742 5739 5735 5731 5727 5724 5722 5721 5721 5722 5724 5725 5727 5729 5731 5733 5733 5735 5736 5738 5739 5741 5743 5745 5747 5749 5750 5752 5753 5754 5756 5758 5761 5765 5769
5747 5746 5745 5744 5742 5741 5739 5737 5735 5732 5729 5725 5721 5718 5716 5714 5713 5714 5715 5717 5719 5720 5722 5724 5726 5728 5729 5731 5733 5735 5737 5738 5740 5742 5744 5746 5747 5748 5750 5752 5755 5758 5761
5734 5733 5733 5733 5732 5731 5730 5729 5727 5725 5722 5719 5716 5713 5710 5708 5707 5707 5708 5709 5711 5713 5714 5716 5718 5721 5723 5724 5727 5729 5731 5733 5734 5736 5737 5739 5740 5742 5744 5746 5748 5750 5753
5720 5720 5720 5721 5721 5721 5720 5720 5719 5717 5715 5713 5710 5707 5704 5702 5701 5701 5701 5703 5704 5706 5707 5709 5711 5713 5716 5718 5721 5723 5725 5727 5728 5730 5731 5733 5734 5736 5738 5739 5741 5744 5746
5704 5705 5706 5707 5708 5709 5710 5710 5709 5708 5707 5705 5703 5701 5698 5696 5695 5695 5695 5696 5698 5700 5701 5703 5706 5708 5710 5712 5715 5717 5720 5721 5723 5725 5726 5728 5729 5731 5733 5734 5736 5738 5740
5686 5689 5691 5693 5695 5697 5698 5699 5699 5699 5699 5698 5697 5695 5693 5691 5689 5689 5690 5691 5693 5695 5696 5698 5700 5703 5705 5707 5710 5712 5715 5717 5718 5720 5722 5724 5726 5727 5728 5730 5731 5733 5735
5666 5671 5675 5678 5681 5683 5686 5688 5689 5690 5690 5690 5689 5688 5687 5685 5684 5684 5685 5686 5687 5689 5691 5694 5695 5697 5699 5702 5704 5707 5710 5713 5715 5716 5718 5720 5721 5722 5724 5725 5726 5727 5728
5645 5651 5657 5662 5666 5669 5672 5675 5677 5679 5680 5680 5681 5681 5680 5679 5679 5679 5680 5681 5682 5683 5686 5688 5690 5692 5694 5697 5700 5703 5706 5709 5711 5713 5714 5716 5717 5718 5719 5720 5721 5722 5722
5622 5629 5636 5643 5649 5653 5657 5661 5665 5667 5669 5671 5672 5673 5673 5673 5674 5674 5675 5676 5677 5679 5681 5683 5685 5688 5691 5694 5697 5700 5703 5706 5707 5709 5711 5712 5713 5714 5715 5715 5715 5716 5716
5597 5606 5615 5624 5631 5637 5642 5647 5652 5655 5658 5661 5663 5665 5666 5666 5667 5669 5670 5671 5673 5675 5677 5679 5681 5684 5688 5691 5694 5697 5700 5702 5704 5706 5707 5708 5709 5710 5710 5710 5710 5710 5709
Wind_Speed
38 38 37 37 38 39 40 42 42 42 42 42 41 40 40 39 37 36 34 33 31 29 28 27 26 26 24 24 23 23 23 23 21 21 20 20 20 20 20 19 19 18 17
37 37 36 36 36 37 36 37 38 39 40 41 41 41 41 41 40 40 38 37 35 32 30 29 29 29 28 27 27 27 27 27 26 25 23 22 21 21 22 22 21 20 19
33 33 33 33 34 35 35 36 36 35 34 35 34 34 35 36 37 37 37 35 33 33 33 31 31 31 30 31 30 30 30 31 30 30 28 26 24 23 22 23 24 23 22
29 30 31 32 34 35 37 38 38 37 36 36 36 34 32 32 33 34 35 33 31 31 32 33 33 32 32 32 32 33 33 34 34 33 33 31 28 26 25 24 24 25 24
25 27 29 31 33 35 36 37 38 39 39 39 39 37 36 35 35 36 35 34 33 32 33 35 36 36 34 34 34 34 35 36 37 37 36 35 34 31 28 27 26 26 26
23 24 27 29 32 35 36 38 38 39 39 39 39 39 37 37 37 38 37 37 35 35 35 36 37 37 36 35 35 35 36 37 38 39 39 38 38 36 34 31 28 27 27
18 20 23 26 30 33 36 38 39 40 39 39 39 37 37 36 36 36 36 37 36 36 36 36 37 38 38 37 37 37 37 37 38 40 41 40 40 40 39 36 32 30 28
16 18 20 23 25 29 32 36 39 41 41 41 40 39 36 35 34 34 35 35 36 37 36 36 37 37 37 38 38 38 38 38 39 40 41 42 42 42 43 41 37 33 31
17 19 20 22 24 26 28 31 35 38 40 41 42 41 39 36 35 34 33 34 35 35 35 36 36 37 37 37 38 38 39 40 39 40 41 42 43 43 44 44 42 37 34
20 21 22 24 25 27 27 29 31 34 37 39 41 42 40 39 37 35 34 34 36 36 36 36 36 37 38 39 39 39 39 40 39 39 40 41 43 44 44 45 44 41 37
23 23 24 25 26 27 28 29 29 31 34 36 39 41 41 40 38 37 36 35 35 36 36 35 35 36 37 39 40 39 39 39 39 39 39 40 42 43 44 45 46 44 41
25 25 25 25 26 27 29 30 30 30 31 33 36 39 40 39 39 37 36 35 35 35 35 34 33 34 35 36 37 38 38 38 38 38 37 37 38 40 42 45 46 45 43
26 25 26 26 26 27 29 30 31 30 30 30 32 35 37 38 38 38 37 36 36 36 35 34 34 34 34 35 36 36 37 37 36 36 36 35 36 37 39 41 43 45 43
27 26 26 26 27 27 28 30 30 30 29 29 30 31 34 35 37 37 37 37 37 37 36 35 35 36 35 35 35 36 36 35 33 33 34 34 34 34 36 38 40 42 43
29 27 27 27 27 27 28 29 31 30 29 28 28 28 30 33 34 36 36 37 37 37 37 36 35 36 36 35 34 35 34 33 33 32 31 31 32 34 36 38 39 41 41
32 29 28 28 27 27 28 29 31 30 29 28 27 27 27 30 32 33 35 36 37 37 37 36 36 36 34 32 30 31 31 31 32 32 31 29 28 32 35 37 38 40 40
34 31 29 28 27 27 28 29 30 30 29 28 27 26 25 26 29 31 32 34 35 35 35 35 36 34 32 30 29 28 29 29 29 28 27 27 28 29 31 34 37 40 41
37 34 31 29 28 27 28 29 30 31 30 29 27 25 24 24 25 27 30 31 32 33 33 34 34 33 31 30 30 28 28 27 27 27 28 29 30 31 32 34 37 40 41
41 37 35 32 30 29 29 30 30 31 31 29 28 26 24 23 23 24 26 27 29 30 30 31 32 32 31 31 31 31 29 27 27 27 27 27 29 29 30 32 35 38 40
45 41 38 36 34 33 32 32 32 31 31 30 28 26 24 22 21 21 23 24 26 28 28 29 30 30 31 30 30 29 27 26 25 24 24 23 24 24 24 24 25 27 29
50 44 41 38 37 36 35 34 33 32 31 30 28 26 24 21 20 20 21 23 25 26 27 27 28 27 29 29 28 27 26 24 22 21 19 18 17 17 16 17 18 20 22
52 48 44 42 41 39 38 37 35 34 32 30 28 26 24 21 19 21 23 24 25 26 27 27 28 29 30 29 28 25 22 20 18 17 15 14 14 15 16 18 20 21 23
56 52 48 47 45 43 41 39 38 35 33 31 28 26 24 22 21 21 23 24 26 28 29 28 29 28 27 24 22 19 18 16 15 14 14 14 15 16 18 19 20 21 23
66 61 57 53 50 47 44 41 39 36 34 32 29 27 25 22 21 21 22 24 25 26 28 28 27 25 22 19 18 17 17 16 14 14 14 14 15 16 17 18 19 21 22
71 65 60 56 52 48 45 42 40 37 35 33 30 28 25 22 22 21 22 23 24 25 25 24 23 20 19 18 18 16 15 14 13 14 14 14 14 15 15 16 18 19 21
65 62 58 53 49 47 45 43 40 39 36 34 31 28 26 23 22 22 21 23 23 23 22 21 21 20 19 18 16 15 14 13 13 12 12 12 12 12 12 14 16 18 20
Wind_Direction
276 276 276 276 276 276 276 275 275 272 270 268 266 264 264 264 264 263 263 263 263 263 260 258 258 256 255 255 255 255 253 251 250 248 246 245 244 242 241 240 240 241 244
277 278 278 279 279 279 281 282 282 278 274 273 271 268 266 265 265 265 265 265 262 261 261 259 257 257 256 256 256 256 255 253 251 249 247 246 245 244 242 241 240 241 243
280 281 281 282 283 283 284 286 287 286 286 281 279 278 275 269 267 268 269 268 266 262 260 260 259 257 257 256 256 257 255 253 251 249 248 246 245 244 243 242 241 240 241
283 284 285 285 284 285 284 283 283 283 282 282 282 280 278 274 269 269 270 270 269 265 262 260 260 257 256 256 256 257 257 255 252 250 248 247 245 244 244 243 242 241 240
288 289 289 289 288 286 284 282 280 279 279 278 276 275 274 273 271 271 272 271 268 265 264 262 260 258 256 254 255 256 257 256 253 250 248 247 246 244 244 244 244 243 241
292 293 293 292 290 288 286 284 281 279 278 277 275 274 272 271 270 269 269 268 266 263 262 262 261 258 255 254 253 254 256 256 255 252 249 248 246 245 244 244 245 246 244
298 300 300 297 292 289 285 282 280 278 277 277 276 275 273 271 269 268 268 266 264 263 262 261 260 258 256 254 253 254 255 257 256 253 250 249 247 246 244 243 244 246 246
302 306 307 307 303 297 291 284 279 276 274 273 273 273 272 272 271 268 265 264 263 263 263 261 260 259 257 255 253 253 255 258 257 254 251 250 249 248 245 242 242 244 246
303 309 313 316 316 311 302 294 286 280 274 271 270 269 269 269 269 267 265 264 264 264 264 262 260 259 257 255 254 255 256 258 258 255 253 251 250 249 246 242 240 242 244
305 310 315 318 321 321 315 304 295 287 279 273 269 267 266 266 265 265 264 264 265 265 264 262 262 260 259 256 256 257 257 258 258 256 254 253 252 250 247 241 238 240 241
302 307 312 317 321 323 323 317 306 295 286 277 271 267 265 264 264 263 263 263 263 264 265 265 264 263 260 258 256 257 257 257 257 257 256 254 253 250 246 241 237 237 239
298 304 309 313 318 322 325 324 317 306 295 285 275 269 266 263 262 261 260 261 263 263 264 265 265 265 263 259 256 257 257 257 256 256 255 254 253 250 246 240 236 235 238
294 300 305 309 314 320 325 326 324 316 304 293 282 273 268 263 261 259 259 259 261 263 263 265 266 265 264 261 258 256 256 255 254 255 255 254 251 249 245 238 234 234 236
290 295 300 304 309 316 322 326 325 321 312 301 289 279 270 264 261 259 258 258 260 262 263 264 265 264 263 261 258 256 255 254 254 255 255 253 249 246 242 234 230 231 234
288 291 295 298 303 310 317 323 325 324 317 308 298 286 275 267 262 259 258 258 259 260 262 264 262 262 261 259 258 256 253 252 252 256 256 255 251 245 239 233 230 230 233
285 287 290 292 297 304 310 317 322 323 320 313 305 294 281 270 263 259 258 257 258 259 260 260 260 259 257 257 254 251 249 250 252 254 255 259 257 251 242 235 232 230 231
281 283 285 288 292 298 306 312 317 320 319 315 309 302 289 275 265 260 257 257 257 257 256 256 255 253 251 249 245 245 246 251 253 254 255 260 261 256 249 241 236 233 232
277 278 281 284 287 294 301 307 312 315 317 315 310 304 295 282 269 261 256 255 254 252 252 250 249 247 245 241 240 244 246 249 255 258 259 262 262 260 254 248 242 238 237
274 274 276 279 283 289 297 303 307 310 312 312 309 305 297 286 274 265 257 253 251 249 247 244 242 241 241 240 242 246 247 252 258 259 261 263 262 259 255 253 249 245 243
270 270 271 274 278 284 291 297 302 305 306 306 304 302 298 289 275 267 258 252 249 246 244 241 240 237 238 241 242 246 251 257 258 260 260 260 257 254 254 253 251 250 251
264 265 267 270 275 281 287 292 295 298 300 300 299 297 295 289 276 268 259 252 247 244 239 236 235 237 238 241 242 248 251 251 253 253 251 249 248 247 250 253 255 256 257
259 262 264 267 272 277 282 285 288 290 291 292 292 291 290 284 274 267 259 249 243 238 233 233 235 237 240 240 242 246 244 242 241 239 239 241 244 247 250 253 255 257 259
258 261 261 265 269 272 276 278 280 282 283 282 283 283 282 276 271 265 257 246 243 240 236 237 237 237 236 235 234 230 228 228 230 236 240 246 250 253 256 259 262 264 267
262 263 264 265 266 267 270 271 271 272 273 272 273 273 273 269 263 259 253 246 242 240 238 236 232 230 224 217 215 218 222 225 229 235 241 248 252 257 262 267 271 274 276
262 262 261 260 260 261 262 262 262 262 263 263 263 263 263 260 256 253 250 245 239 236 231 225 220 215 212 209 207 212 218 222 228 234 240 248 255 262 268 274 279 282 284
257 255 253 251 250 251 253 253 252 252 254 255 255 254 253 252 250 246 244 241 236 229 224 219 213 207 204 203 205 211 217 222 227 235 241 249 258 267 277 283 288 292 294